Denver Centennial, CO

11:23 PM MDT on May 22, 2018 (GMT -0600)
Centennial

Weather History for KAPA - June, 2007

Change the Weather History Date:

Sunday, June 3, 2007

  Actual Average Record
Temperature  
Mean Temperature 59 °F -  
Max Temperature 72 °F 74 °F 91 °F (2006)
Min Temperature 48 °F 46 °F 42 °F (1998)
Degree Days  
Heating Degree Days 6    
Growing Degree Days 9 (Base 50)    
Moisture  
Dew Point 44 °F    
Average Humidity 59    
Maximum Humidity 86    
Minimum Humidity 34    
Precipitation  
Precipitation 0.00 in - - ()
Sea Level Pressure  
Sea Level Pressure 30.01 in    
Wind  
Wind Speed 7 mph (NW)    
Max Wind Speed 23 mph    
Max Gust Speed 31 mph    
Visibility 10 miles    
Events      
Averages and records for this station are not official NWS values.
T = Trace of Precipitation, MM = Missing Value Source: NWS Daily Summary

Daily Weather History Graph

Daily Weather History Graph

Search for Another Location

Airport or City:

Astronomy

Jun. 03, 2007 Rise Set
Actual Time 5:33 AM MDT 8:22 PM MDT
Civil Twilight 5:01 AM MDT 8:54 PM MDT
Nautical Twilight 4:21 AM MDT 9:34 PM MDT
Astronomical Twilight 3:35 AM MDT 10:20 PM MDT
Moon 11:15 PM MDT (6/3) 7:23 AM MDT (6/3)
Length of Visible Light 15h 52m
Length of Day
14h 48m
Waning Gibbous, 93% of the Moon is Illuminated
Jun 3
Waning Gibbous
Jun 8
Last Quarter
Jun 14
New
Jun 22
First Quarter
Jun 30
Full

Hourly Weather History & Observations

Time (MDT) Temp. Dew Point Humidity Pressure Visibility Wind Dir Wind Speed Gust Speed Precip Events Conditions
12:53 AM 53.1 °F 46.9 °F 80% 29.98 in 10.0 mi SSW 5.8 mph - N/A   Scattered Clouds
1:53 AM 50.0 °F 45.0 °F 83% 29.98 in 10.0 mi SSW 5.8 mph - N/A   Scattered Clouds
2:53 AM 48.9 °F 45.0 °F 86% 29.97 in 10.0 mi SE 6.9 mph - N/A   Scattered Clouds
3:53 AM 48.9 °F 44.1 °F 83% 29.98 in 10.0 mi South 5.8 mph - N/A   Partly Cloudy
4:53 AM 48.0 °F 44.1 °F 86% 29.99 in 10.0 mi WSW 6.9 mph - N/A   Partly Cloudy
5:53 AM 51.1 °F 45.0 °F 80% 30.00 in 10.0 mi West 5.8 mph - N/A   Partly Cloudy
6:53 AM 53.1 °F 46.0 °F 77% 29.99 in 10.0 mi WSW 4.6 mph - N/A   Mostly Cloudy
7:53 AM 57.9 °F 46.0 °F 65% 30.01 in 10.0 mi WNW 4.6 mph - N/A   Mostly Cloudy
8:53 AM 59.0 °F 46.0 °F 62% 30.01 in 10.0 mi Variable 3.5 mph - N/A   Mostly Cloudy
9:53 AM 62.1 °F 48.0 °F 60% 30.01 in 10.0 mi North 6.9 mph - N/A   Mostly Cloudy
10:53 AM 64.9 °F 48.0 °F 54% 30.00 in 10.0 mi North 5.8 mph - N/A   Mostly Cloudy
11:53 AM 66.0 °F 46.9 °F 50% 30.02 in 10.0 mi North 9.2 mph - N/A   Mostly Cloudy
12:53 PM 68.0 °F 46.9 °F 47% 30.00 in 10.0 mi North 5.8 mph - N/A   Mostly Cloudy
1:53 PM 69.1 °F 45.0 °F 42% 30.00 in 10.0 mi North 10.4 mph - N/A   Mostly Cloudy
2:53 PM 70.0 °F 45.0 °F 41% 29.98 in 10.0 mi North 9.2 mph - N/A   Mostly Cloudy
3:53 PM 70.0 °F 44.1 °F 39% 29.98 in 10.0 mi NNW 5.8 mph - N/A   Mostly Cloudy
4:53 PM 68.0 °F 45.0 °F 43% 29.99 in 10.0 mi WNW 12.7 mph - N/A   Mostly Cloudy
5:31 PM 66.2 °F 42.8 °F 43% 30.12 in 10.0 mi NNW 21.9 mph 31.1 mph N/A   Mostly Cloudy
5:37 PM 64.4 °F 41.0 °F 42% 30.12 in 10.0 mi North 23.0 mph 31.1 mph N/A   Mostly Cloudy
5:53 PM 64.9 °F 41.0 °F 42% 30.00 in 10.0 mi NNE 16.1 mph 25.3 mph N/A   Mostly Cloudy
6:53 PM 64.9 °F 36.0 °F 34% 29.99 in 10.0 mi East 8.1 mph - N/A   Mostly Cloudy
7:53 PM 64.9 °F 37.0 °F 36% 29.99 in 10.0 mi Calm Calm - N/A   Scattered Clouds
8:53 PM 57.0 °F 41.0 °F 55% 30.02 in 10.0 mi WSW 5.8 mph - N/A   Scattered Clouds
9:53 PM 53.1 °F 42.1 °F 66% 30.04 in 10.0 mi SSW 5.8 mph - N/A   Scattered Clouds
10:53 PM 50.0 °F 41.0 °F 71% 30.04 in 10.0 mi SSW 4.6 mph - N/A   Scattered Clouds
11:53 PM 50.0 °F 41.0 °F 71% 30.04 in 10.0 mi ESE 3.5 mph - N/A   Scattered Clouds